Current weather by "City, St" or "zip code"  
 
Advertise Here

Current Conditions: Oakdale, Allen Parish Airport, LA

Mostly Cloudy


64.0 F

Last Updated on Jan 20 2021, 12:55 pm CST
Humidity: 64%
Wind Speed: N 0.0 mph
Barometer 30.27 in
Dewpoint: 51.8 F
Visibility: 10.00 mi
Precip: --
Heat Index: NA
Wind Chill: NA
Current conditions at:

Oakdale, Allen Parish Airport, LA (KACP)

Lat: 30.75056 Lon: 92.68861

Local Radar Image active severe weather and emergency alerts image image weather storm and storm spotter reports image weather observation monitoring service image
Local
Radar
Active
Alerts
Storm Reports Obs
Monitoring

Sign-up For Email & Text Message Weather Alert Notification Services


Advertise Here

Observation History for Oakdale, Allen Parish Airport, LA


Time Wind
(mph)
Vis
(mi)
Weather Precip (in) Temperature (F) Relative
Humidity
Wind
Chill
(F)
Heat
Index
(F)
Pressure
Air Dwpt altimeter
(in)
sea level
(mb)
Rmks
12:55 pm CST N 0.0 10.00 Mostly Cloudy -- 64.0 51.8 64% NA NA 30.27 M
11:55 am CST N 0.0 10.00 Overcast -- 61.0 50.0 68% NA NA 30.32 M
10:55 am CST NE 4.6 10.00 Overcast -- 59.0 48.2 68% 59 NA 30.36 M
9:55 am CST E 6.9 10.00 Overcast -- 57.0 48.2 72% 56 NA 30.37 M
8:55 am CST NE 3.5 10.00 Overcast -- 55.0 48.2 77% NA NA 30.37 M
7:55 am CST N 0.0 10.00 Overcast -- 54.0 48.2 82% NA NA 30.35 M
6:55 am CST N 0.0 10.00 Overcast -- 54.0 48.2 82% NA NA 30.36 M
6:35 am CST N 0.0 10.00 Overcast -- 54.0 48.2 82% NA NA 30.35 M
5:55 am CST N 0.0 10.00 Mostly Cloudy -- 54.0 48.2 82% NA NA 30.36 M
4:55 am CST N 3.5 10.00 Overcast -- 55.0 48.2 77% NA NA 30.37 M
3:55 am CST NE 5.8 10.00 Overcast -- 57.0 48.2 72% 56 NA 30.35 M
2:55 am CST N 5.8 10.00 Overcast -- 57.0 48.2 72% 56 NA 30.36 M
2:35 am CST NE 6.9 10.00 Overcast -- 57.0 48.2 72% 56 NA 30.36 M
1:55 am CST N 3.5 10.00 Overcast -- 57.0 48.2 72% NA NA 30.36 M
1:35 am CST N 0.0 10.00 Overcast -- 57.0 48.2 72% NA NA 30.37 M
12:55 am CST N 3.5 10.00 Mostly Cloudy -- 57.0 50.0 77% NA NA 30.35 M
11:55 pm CST N 0.0 10.00 Mostly Cloudy -- 55.0 53.6 94% NA NA 30.35 M
10:55 pm CST N 4.6 10.00 Partly Cloudy -- 54.0 51.8 94% 53 NA 30.36 M
9:55 pm CST N 0.0 10.00 Overcast -- 55.0 51.8 88% NA NA 30.35 M
8:55 pm CST N 0.0 10.00 Mostly Cloudy -- 55.0 53.6 94% NA NA 30.33 M
7:55 pm CST N 0.0 10.00 Overcast -- 57.0 53.6 88% NA NA 30.31 M
6:55 pm CST N 0.0 10.00 Partly Cloudy -- 59.0 53.6 82% NA NA 30.30 M
5:55 pm CST N 0.0 10.00 Fair -- 63.0 55.4 77% NA NA 30.28 M
4:55 pm CST S 3.5 10.00 Fair -- 70.0 51.8 53% NA NA 30.27 M

Regional Weather Observation


Oakdale, Allen Parish Airport, LA (KACP)

Mostly Cloudy
64.0 F

Fort Polk, Polk AAF Ft Polk, LA (KPOE)

Overcast
59.0 F

Ft. Polk/Self Strip, LA (KDNK)

Light Rain
66.0 F

De Ridder, Beauregard Parish Airport, LA (KDRI)

Overcast
62.0 F

Alexandria, Alexandria International Airport, LA (KAEX)

Overcast
58.0 F

Ft. Polk - Peason Ridge, LA (KAQV)

Overcast
59.0 F